Wind_Speed
49 49 52 57 58 58 59 58 58 55 53 49 45 44 42 42 41 40 40 40 40 41 41 41 42 42 43 43 43 43 43 42 42 42 42 41 41 41 41 41 41 40 40 40
49 50 50 53 56 56 56 55 54 54 53 49 47 46 44 42 41 40 40 40 40 40 40 40 41 41 41 42 42 42 42 41 41 41 41 41 41 41 40 40 40 40 39 39
46 49 51 52 52 53 52 51 51 53 51 50 51 48 46 44 43 43 42 41 41 41 41 41 40 40 40 40 41 40 40 40 40 40 40 40 40 40 39 39 39 39 38 39
43 45 48 48 48 50 51 51 50 50 51 51 52 50 48 47 46 45 44 44 43 42 42 41 41 41 40 40 39 39 39 39 38 38 38 39 39 39 38 38 38 38 38 38
41 42 45 46 45 46 49 49 49 50 51 52 51 52 51 49 48 47 46 45 44 43 42 42 42 41 40 39 39 39 38 38 38 38 38 38 38 37 37 38 38 38 38 38
38 40 42 42 42 44 46 48 50 50 52 53 54 54 50 48 48 48 47 45 45 44 43 42 41 40 40 39 39 39 38 38 37 37 37 37 37 37 37 37 37 37 38 38
36 39 41 39 40 43 44 44 47 50 51 52 52 51 48 48 48 49 47 46 45 44 43 42 41 40 39 39 38 38 38 37 37 36 36 36 36 36 36 36 37 37 37 37
35 38 39 37 38 41 42 43 44 47 50 52 51 49 48 47 48 48 47 46 45 44 43 42 41 41 40 39 38 39 38 38 37 36 36 36 36 36 36 36 36 36 36 36
33 36 38 39 39 40 42 44 44 44 46 48 50 49 48 47 46 46 45 44 44 43 42 42 41 40 39 39 39 39 38 38 37 36 36 36 36 36 36 36 35 36 35 35
33 35 37 39 39 39 41 43 44 44 44 45 46 47 47 47 46 45 44 44 43 42 41 40 40 39 39 39 38 38 38 38 37 37 36 36 36 36 36 35 36 35 35 35
34 34 36 38 38 38 39 42 43 44 44 44 44 45 45 45 45 44 44 43 42 42 41 40 39 38 38 38 38 37 37 37 37 37 36 36 36 36 35 35 35 35 35 35
34 34 36 36 38 39 39 40 41 43 44 44 43 43 43 44 43 43 42 42 42 41 40 40 39 38 37 38 38 37 37 36 37 37 36 36 35 35 35 35 35 35 35 36
33 34 35 34 36 39 40 39 39 41 42 43 42 42 42 42 42 41 41 41 41 41 40 39 38 38 38 38 37 37 36 36 36 36 36 35 35 35 35 35 35 35 35 36
32 34 34 34 35 37 38 39 39 40 41 41 42 42 41 41 40 39 40 40 39 39 39 39 38 38 38 38 37 37 36 36 35 35 34 34 34 34 34 34 35 35 36 36
31 32 33 34 35 36 38 39 38 38 39 40 40 41 41 40 39 39 38 38 37 37 38 38 37 36 36 36 37 37 36 36 36 35 35 34 34 34 34 34 34 35 35 36
30 32 33 33 35 35 37 39 39 38 39 40 39 39 40 40 39 38 37 36 36 36 36 36 35 34 34 34 35 35 35 35 35 34 34 34 34 34 34 34 34 34 35 35
30 32 32 32 32 34 35 37 39 38 38 38 38 38 38 39 38 37 36 35 35 35 35 34 34 33 33 33 34 35 35 34 33 33 33 33 34 34 34 34 34 34 35 35
31 30 31 30 31 32 33 35 37 37 36 36 37 37 38 37 36 36 36 35 34 34 33 33 32 32 32 32 33 33 32 32 32 32 32 32 32 33 32 32 33 34 34 35
29 29 30 31 31 31 33 34 36 36 35 35 35 36 35 35 34 34 34 33 32 31 31 31 31 31 31 31 32 31 30 30 30 30 30 30 31 31 32 32 33 34 35 36
26 27 29 30 30 30 31 33 35 35 34 34 33 34 34 34 33 33 32 31 31 30 30 30 29 29 30 30 30 29 29 29 29 29 29 30 30 31 32 32 33 34 35 36
24 26 28 29 28 28 30 32 33 33 33 33 32 32 32 33 33 32 31 30 30 30 29 28 28 28 28 28 29 29 28 28 28 29 29 30 30 31 32 33 34 35 36 37
21 24 26 27 27 27 28 29 30 31 32 32 31 31 32 32 31 31 30 29 29 28 28 28 27 28 27 27 28 28 27 27 28 28 29 30 30 31 32 33 34 35 36 37
19 22 24 25 26 26 26 27 28 28 29 30 30 30 30 31 31 30 29 28 28 27 27 27 28 28 27 26 26 26 26 27 28 28 29 30 31 32 33 34 35 36 37 38
17 20 23 25 26 26 26 25 26 27 28 28 28 28 29 30 30 29 28 27 27 27 27 26 26 25 25 25 26 26 27 27 28 29 29 30 31 32 34 35 36 37 38 39
17 19 22 24 25 25 25 25 25 26 27 26 26 27 28 29 29 28 27 27 26 25 25 25 25 25 25 25 25 26 27 28 29 30 31 31 32 34 35 36 37 38 39 40
16 18 20 22 23 24 23 23 23 23 24 24 24 26 27 27 27 27 26 25 24 24 24 25 25 26 26 26 27 28 28 29 30 30 31 32 33 34 35 36 37 38 39 40
17 19 20 22 22 22 22 22 22 22 22 22 23 24 24 24 24 24 23 23 23 23 24 24 24 25 26 26 27 28 28 29 30 31 32 33 34 34 35 37 38 39 40 41
Wind_Direction
224 224 225 224 224 225 226 228 229 228 228 227 228 229 230 230 230 229 230 230 231 233 236 238 240 242 244 245 247 248 249 251 253 255 256 258 259 261 263 265 267 269 271 272
226 227 227 225 223 225 227 227 228 227 227 228 230 229 229 230 229 228 228 228 230 231 234 236 239 241 243 245 246 248 249 251 253 254 256 257 259 260 262 264 266 268 270 272
228 228 229 227 224 225 226 227 227 227 225 228 229 229 229 230 231 230 228 228 230 231 233 235 238 240 243 245 247 248 250 252 254 255 256 257 259 260 262 264 266 268 270 272
231 229 230 227 227 228 228 228 227 225 225 227 228 228 228 228 229 230 230 230 231 232 233 236 238 240 242 245 247 248 250 252 254 256 257 258 259 260 262 264 266 268 270 272
232 231 230 227 228 228 227 226 225 225 224 225 226 227 226 227 228 229 230 231 232 233 234 236 238 240 241 243 246 248 250 252 254 256 257 258 260 262 263 264 266 268 270 272
232 232 229 227 228 229 228 227 224 224 224 225 226 227 225 226 228 229 231 232 232 233 235 237 238 239 241 244 246 248 250 253 254 256 258 259 261 263 264 265 267 269 270 272
235 235 231 227 228 228 228 224 224 224 225 226 226 226 224 224 227 229 230 231 232 233 235 236 238 239 241 244 246 248 250 253 255 257 258 260 262 264 265 266 267 269 271 273
237 235 231 227 228 228 227 225 225 225 225 226 226 225 224 225 226 227 229 230 232 233 235 237 238 240 241 244 246 248 251 254 255 257 260 262 263 265 266 267 268 270 272 274
237 236 233 230 229 227 227 227 225 225 225 226 225 225 225 225 226 226 229 231 233 234 235 236 238 239 241 244 246 248 251 254 256 258 261 262 264 265 266 267 269 270 272 274
236 233 232 230 228 226 226 226 225 226 225 225 226 226 225 225 227 227 228 231 233 234 235 236 237 238 240 243 247 249 251 254 257 259 261 262 263 265 267 269 270 271 272 274
234 232 232 230 228 226 225 225 226 226 224 224 225 225 225 225 227 228 229 230 233 234 235 236 237 239 241 244 246 249 251 254 256 258 259 261 263 265 267 269 270 272 273 275
234 231 232 229 227 226 225 225 225 224 224 225 226 225 224 224 226 228 229 231 232 234 236 237 238 240 242 244 247 249 251 254 256 257 259 261 263 265 267 268 270 272 274 275
234 231 230 229 226 224 223 223 223 224 224 225 226 226 225 225 226 228 230 231 232 233 236 237 238 240 242 245 247 248 251 253 255 257 259 261 263 265 267 268 269 271 274 275
235 233 231 227 224 222 221 221 222 223 224 224 225 224 224 224 226 227 228 230 232 233 236 238 239 241 243 246 247 248 250 253 255 257 259 261 263 265 267 269 271 273 275 276
234 233 230 225 222 221 221 220 221 222 222 222 221 221 221 222 222 224 226 229 231 233 236 239 240 242 244 246 247 249 251 253 255 257 259 261 263 264 266 269 271 274 275 277
232 230 225 222 221 220 219 219 219 218 219 219 219 219 221 222 222 223 226 228 231 233 236 238 239 241 243 245 247 249 251 253 255 257 259 261 263 265 267 270 272 274 276 278
231 227 222 220 220 219 219 219 219 219 219 219 219 220 220 221 223 225 227 228 230 232 235 237 240 243 245 246 248 250 252 253 255 258 259 262 264 267 269 271 273 275 277 280
229 226 222 220 219 219 218 218 219 218 217 218 219 220 221 221 223 224 224 226 229 232 234 237 241 244 245 247 248 250 252 254 257 258 260 263 265 267 268 271 274 277 279 282
226 223 219 217 218 218 217 216 216 215 215 215 217 218 219 220 220 221 222 224 229 231 234 238 240 242 244 246 249 251 253 255 256 258 261 263 264 267 270 273 276 279 281 283
222 219 215 213 215 216 214 213 214 214 215 216 216 217 218 220 220 219 221 225 229 232 234 237 240 243 245 246 248 250 252 255 256 258 261 264 267 270 273 276 278 281 284 286
217 214 212 210 210 211 211 210 210 211 212 214 215 215 216 218 219 220 221 224 229 232 234 238 240 242 244 246 249 250 252 256 258 261 264 267 270 272 276 278 281 283 286 288
209 209 209 208 206 206 206 206 209 211 211 212 213 214 215 216 218 220 222 225 229 232 234 237 239 242 245 247 249 250 253 257 260 264 267 270 272 275 279 282 283 285 287 289
206 205 204 204 203 202 203 205 207 209 209 209 209 209 211 213 215 218 220 223 226 229 233 236 240 242 245 247 249 252 256 259 263 267 270 273 276 279 281 283 285 287 289 290
203 199 198 199 200 201 203 203 203 204 204 203 205 207 209 211 213 216 218 221 225 229 232 236 240 243 246 248 252 255 259 262 266 270 273 275 278 281 284 286 288 290 291 292
198 193 192 191 195 197 197 197 199 201 199 200 203 206 208 210 211 211 215 219 224 228 233 237 240 242 247 250 254 258 262 265 269 272 275 278 281 284 286 288 289 290 292 293
193 191 188 188 190 190 190 191 191 193 194 196 200 204 206 208 210 212 216 221 226 232 237 241 244 248 252 255 258 262 265 269 273 275 278 280 283 285 286 287 289 291 292 294
189 185 182 182 183 184 187 189 188 188 190 194 199 203 205 209 212 216 220 225 231 236 240 244 248 252 254 257 261 264 267 271 274 277 279 281 283 285 287 289 291 292 294 295
Height
5479 5485 5492 5500 5509 5517 5523 5533 5544 5558 5568 5579 5586 5593 5599 5604 5610 5616 5621 5626 5631 5635 5640 5644 5648 5651 5655 5658 5662 5665 5668 5671 5673 5675 5677 5678 5680 5681 5681 5682 5683 5683 5683 5683
5470 5476 5482 5490 5499 5508 5516 5526 5536 5547 5558 5569 5575 5581 5588 5594 5600 5606 5611 5616 5621 5625 5630 5634 5638 5641 5645 5648 5652 5655 5658 5661 5663 5665 5667 5668 5670 5671 5672 5673 5673 5673 5674 5673
5461 5467 5473 5482 5491 5499 5508 5518 5528 5537 5551 5558 5563 5570 5577 5583 5589 5595 5600 5606 5611 5616 5620 5624 5628 5632 5635 5639 5642 5645 5648 5651 5653 5655 5657 5658 5660 5661 5662 5663 5663 5664 5664 5664
5453 5460 5466 5478 5485 5491 5500 5509 5519 5528 5537 5543 5551 5558 5564 5571 5578 5584 5590 5596 5601 5606 5610 5614 5618 5622 5626 5630 5633 5636 5638 5641 5643 5645 5647 5649 5650 5651 5652 5653 5654 5654 5654 5654
5445 5450 5457 5469 5475 5482 5490 5500 5509 5517 5525 5532 5538 5544 5552 5560 5567 5573 5579 5585 5591 5596 5601 5605 5609 5613 5617 5620 5624 5627 5629 5631 5634 5636 5637 5639 5640 5642 5642 5643 5644 5644 5644 5643
5438 5443 5451 5462 5468 5474 5481 5488 5498 5504 5512 5519 5524 5532 5544 5550 5555 5562 5568 5574 5580 5585 5591 5596 5600 5604 5608 5612 5615 5618 5620 5622 5624 5626 5628 5629 5631 5632 5633 5633 5634 5634 5634 5634
5430 5435 5443 5453 5459 5464 5472 5481 5487 5493 5500 5507 5514 5524 5534 5538 5544 5550 5557 5564 5570 5575 5581 5586 5591 5595 5599 5603 5606 5608 5610 5613 5615 5617 5619 5620 5621 5622 5623 5623 5624 5624 5624 5624
5423 5429 5439 5445 5449 5455 5461 5469 5476 5483 5490 5497 5505 5514 5521 5527 5534 5540 5547 5553 5559 5565 5571 5576 5581 5586 5590 5594 5596 5599 5601 5603 5606 5607 5609 5610 5612 5613 5613 5614 5614 5614 5614 5614
5416 5424 5429 5434 5439 5445 5451 5459 5466 5472 5480 5487 5496 5503 5510 5517 5524 5531 5537 5544 5550 5556 5561 5566 5571 5576 5580 5584 5586 5589 5592 5594 5596 5598 5600 5601 5602 5603 5604 5604 5605 5605 5605 5604
5408 5414 5420 5425 5430 5436 5442 5449 5456 5463 5471 5478 5486 5494 5501 5508 5515 5521 5528 5534 5540 5546 5552 5557 5561 5566 5570 5574 5577 5580 5582 5585 5587 5588 5590 5591 5592 5593 5594 5595 5595 5595 5595 5595
5399 5406 5411 5416 5422 5428 5434 5440 5447 5454 5462 5469 5477 5484 5492 5499 5505 5512 5518 5524 5530 5536 5542 5547 5552 5556 5560 5564 5567 5570 5573 5575 5577 5579 5580 5582 5583 5584 5585 5585 5586 5586 5585 5585
5392 5398 5402 5408 5413 5419 5425 5431 5438 5446 5453 5461 5468 5475 5483 5490 5496 5502 5509 5515 5521 5526 5532 5537 5542 5546 5550 5554 5557 5560 5563 5565 5567 5569 5570 5572 5573 5574 5574 5575 5575 5575 5575 5575
5383 5388 5393 5399 5404 5410 5416 5423 5430 5437 5444 5452 5459 5466 5474 5481 5487 5493 5499 5506 5512 5517 5522 5527 5532 5537 5540 5544 5547 5550 5553 5555 5557 5559 5560 5562 5563 5564 5565 5565 5565 5565 5565 5564
5375 5379 5384 5391 5396 5402 5408 5415 5421 5428 5436 5443 5450 5458 5465 5472 5478 5485 5491 5497 5502 5508 5513 5518 5523 5527 5531 5534 5537 5540 5543 5545 5547 5549 5551 5552 5553 5554 5555 5555 5556 5555 5555 5554
5367 5371 5376 5381 5387 5393 5399 5406 5413 5420 5427 5434 5441 5449 5456 5463 5470 5476 5482 5488 5493 5499 5504 5509 5514 5517 5521 5524 5528 5531 5533 5536 5538 5540 5541 5542 5544 5545 5545 5545 5545 5545 5545 5544
5358 5362 5367 5372 5379 5385 5391 5398 5405 5412 5419 5426 5433 5440 5447 5454 5460 5467 5473 5479 5485 5490 5495 5500 5504 5508 5512 5515 5518 5521 5523 5526 5528 5530 5531 5533 5534 5535 5535 5535 5535 5535 5534 5533
5350 5355 5360 5365 5371 5377 5383 5390 5397 5404 5411 5418 5425 5431 5438 5445 5451 5458 5465 5471 5477 5482 5487 5491 5496 5499 5503 5506 5509 5512 5514 5516 5518 5520 5522 5523 5524 5525 5525 5525 5525 5525 5524 5523
5343 5347 5353 5358 5364 5369 5375 5382 5389 5396 5403 5410 5416 5423 5430 5437 5444 5450 5457 5463 5468 5474 5479 5483 5487 5491 5494 5497 5500 5503 5505 5507 5509 5511 5512 5513 5514 5515 5515 5515 5515 5514 5513 5512
5336 5341 5346 5352 5357 5363 5369 5375 5381 5388 5395 5402 5409 5416 5423 5430 5436 5443 5449 5455 5461 5466 5470 5475 5478 5482 5485 5488 5491 5494 5496 5498 5500 5501 5503 5504 5504 5505 5505 5505 5505 5504 5503 5501
5329 5334 5339 5345 5351 5357 5362 5368 5374 5381 5388 5395 5402 5409 5416 5423 5430 5436 5442 5448 5453 5458 5463 5467 5471 5474 5477 5480 5483 5485 5487 5489 5491 5492 5493 5494 5495 5495 5495 5495 5494 5493 5492 5490
5324 5329 5334 5340 5346 5351 5356 5362 5368 5375 5382 5389 5396 5403 5410 5416 5423 5429 5435 5441 5446 5451 5455 5459 5463 5467 5470 5472 5475 5477 5479 5481 5482 5483 5484 5485 5485 5485 5485 5485 5484 5482 5481 5479
5320 5324 5329 5335 5340 5346 5351 5357 5363 5370 5376 5383 5390 5397 5403 5410 5416 5422 5429 5434 5439 5444 5448 5452 5456 5459 5462 5465 5467 5469 5471 5472 5473 5474 5475 5476 5476 5476 5475 5474 5473 5471 5469 5467
5317 5321 5326 5331 5337 5342 5348 5354 5359 5365 5372 5378 5385 5391 5398 5404 5411 5417 5423 5428 5433 5437 5441 5445 5449 5452 5455 5457 5459 5461 5462 5464 5465 5465 5466 5466 5466 5465 5464 5463 5462 5460 5458 5455
5315 5319 5324 5329 5334 5340 5345 5351 5356 5362 5368 5374 5380 5387 5393 5400 5406 5412 5417 5422 5427 5431 5435 5438 5442 5444 5447 5449 5451 5453 5454 5455 5456 5456 5456 5456 5456 5455 5454 5452 5451 5449 5446 5443
5314 5318 5323 5328 5333 5338 5343 5348 5354 5359 5365 5371 5377 5383 5390 5396 5401 5407 5412 5417 5421 5425 5428 5431 5434 5437 5439 5441 5443 5444 5445 5446 5446 5446 5446 5446 5445 5444 5443 5441 5439 5437 5434 5431
5314 5318 5323 5328 5332 5337 5342 5348 5353 5358 5364 5370 5375 5381 5387 5392 5397 5402 5407 5411 5415 5418 5422 5424 5427 5429 5431 5433 5434 5435 5436 5437 5437 5436 5436 5435 5434 5433 5431 5429 5427 5425 5422 5419
5315 5319 5323 5328 5333 5338 5343 5348 5353 5358 5363 5369 5374 5379 5384 5389 5394 5398 5402 5406 5409 5412 5415 5417 5419 5421 5423 5424 5425 5426 5427 5427 5427 5426 5426 5424 5423 5422 5420 5418 5415 5412 5409 5406